User: anonymous   Login
Location: Coffee Creek Observatory
(38.8077°N, 94.7179°W)
Time: 06:52:27
(UTC-05:00)
Language:

Lacrosse 4 Rocket - Orbit

View from above orbital plane
View from above orbital plane
View from above satellite
View from above satellite

Ground track
Ground track

The orbit data is extracted from the following two-line orbital elements,

1 26474U 00047B   14304.16585222  .00003247  00000-0  30796-3 0  7810
2 26474 067.9978 330.1775 0064856 295.6985 063.7469 14.93310813771902
Epoch (UTC): 31 October 2014 03:58:49
Eccentricity: 0.0064856
inclination: 67.9978°
perigee height: 542 km
apogee height: 633 km
right ascension of ascending node: 330.1775°
argument of perigee: 295.6985°
revolutions per day: 14.93310813
mean anomaly at epoch: 63.7469°
orbit number at epoch: 77190

The dashed part of the orbit path shows where the satellite is in the earth's shadow,  

DLR